Tracking 25193 objects as of 17-Jan-2022
HD Live streaming from Space Station
objects crossing your sky now

STARLINK-2068

Track STARLINK-2068 now!
10-day predictions
STARLINK-2068 is classified as:


NORAD ID: 47722
Int'l Code: 2021-017A
Perigee: 553.1 km
Apogee: 555.6 km
Inclination: 53.1 °
Period: 95.6 minutes
Semi major axis: 6925 km
RCS: Unknown
Launch date: March 4, 2021
Source: United States (US)
Launch site: AIR FORCE EASTERN TEST RANGE (AFETR)
aabbcc
Your satellite tracking list
Your tracking list is empty




NASA's NSSDC Master Catalog

Two Line Element Set (TLE):
1 47722U 21017A   22016.73556175  .00001548  00000-0  12274-3 0  9990
2 47722  53.0554 148.5446 0001802  84.2726 275.8469 15.06409990 49274
Source of the keplerian elements: AFSPC